EZY96ME EGKK-LOWI

Flight info

Callsign EZY96ME
Flight time 1h 30m
Altitude 35000
Route ODVIK Y311 DVR UL9 KONAN UL607 MATUG DCT AMASI DCT BOMBI/N0463F310 T104 WLD M867 BAVAX Z106 MANAL M736 TULSI TULSI3A
Aircraft A320/M-SDE3FGHIRWY/LB1

Departure

Time 2026-05-05 20:22
Airport London Gatwick Airport (EGKK)

Arrival

Time 2026-05-05 21:52
Airport Innsbruck Airport (LOWI)
Time Latitude Longitude Altitude Speed Heading
2026-05-05 19:27 51.15660 -0.17699 213 ft 0 kts 167°
2026-05-05 20:01 51.15663 -0.17700 216 ft 2 kts 167°
2026-05-05 20:01 51.15689 -0.17709 217 ft 4 kts 167°
2026-05-05 20:01 51.15710 -0.17716 215 ft 4 kts 180°
2026-05-05 20:01 51.15732 -0.17705 212 ft 4 kts 235°
2026-05-05 20:02 51.15740 -0.17669 211 ft 4 kts 258°
2026-05-05 20:02 51.15742 -0.17653 211 ft 0 kts 257°
2026-05-05 20:04 51.15736 -0.17700 213 ft 11 kts 257°
2026-05-05 20:05 51.15714 -0.17858 207 ft 14 kts 257°
2026-05-05 20:05 51.15691 -0.18022 211 ft 16 kts 257°
2026-05-05 20:05 51.15669 -0.18186 207 ft 14 kts 258°
2026-05-05 20:05 51.15644 -0.18335 208 ft 15 kts 237°
2026-05-05 20:06 51.15544 -0.18334 205 ft 15 kts 167°
2026-05-05 20:06 51.15443 -0.18299 210 ft 15 kts 168°
2026-05-05 20:06 51.15347 -0.18265 208 ft 13 kts 167°
2026-05-05 20:06 51.15261 -0.18235 206 ft 12 kts 165°
2026-05-05 20:07 51.15194 -0.18263 208 ft 12 kts 244°
2026-05-05 20:07 51.15167 -0.18467 211 ft 25 kts 257°
2026-05-05 20:07 51.15129 -0.18750 215 ft 27 kts 258°
2026-05-05 20:07 51.15088 -0.19042 209 ft 27 kts 258°
2026-05-05 20:08 51.15048 -0.19343 205 ft 28 kts 257°
2026-05-05 20:08 51.15008 -0.19631 205 ft 27 kts 257°
2026-05-05 20:08 51.14972 -0.19892 214 ft 21 kts 258°
2026-05-05 20:08 51.14941 -0.20115 215 ft 20 kts 257°
2026-05-05 20:09 51.14911 -0.20324 211 ft 18 kts 257°
2026-05-05 20:09 51.14885 -0.20514 204 ft 16 kts 258°
2026-05-05 20:09 51.14865 -0.20664 208 ft 10 kts 257°
2026-05-05 20:09 51.14850 -0.20767 209 ft 9 kts 257°
2026-05-05 20:10 51.14838 -0.20854 210 ft 7 kts 257°
2026-05-05 20:10 51.14829 -0.20923 212 ft 6 kts 257°
2026-05-05 20:10 51.14821 -0.20980 209 ft 6 kts 257°
2026-05-05 20:10 51.14812 -0.21043 217 ft 5 kts 257°
2026-05-05 20:11 51.14806 -0.21088 209 ft 1 kts 257°
2026-05-05 20:11 51.14803 -0.21110 210 ft 4 kts 257°
2026-05-05 20:11 51.14796 -0.21142 216 ft 3 kts 248°
2026-05-05 20:12 51.14785 -0.21185 207 ft 4 kts 250°
2026-05-05 20:12 51.14774 -0.21252 205 ft 7 kts 257°
2026-05-05 20:12 51.14765 -0.21317 209 ft 5 kts 257°
2026-05-05 20:12 51.14761 -0.21347 205 ft 0 kts 257°
2026-05-05 20:13 51.14760 -0.21348 205 ft 1 kts 257°
2026-05-05 20:14 51.14756 -0.21369 208 ft 2 kts 249°
2026-05-05 20:14 51.14752 -0.21382 213 ft 1 kts 239°
2026-05-05 20:14 51.14742 -0.21398 213 ft 5 kts 221°
2026-05-05 20:14 51.14709 -0.21403 213 ft 5 kts 172°
2026-05-05 20:15 51.14680 -0.21387 211 ft 4 kts 147°
2026-05-05 20:15 51.14665 -0.21366 214 ft 1 kts 138°
2026-05-05 20:16 51.14661 -0.21360 217 ft 3 kts 139°
2026-05-05 20:16 51.14623 -0.21333 210 ft 1 kts 165°
2026-05-05 20:17 51.14619 -0.21332 209 ft 0 kts 165°
2026-05-05 20:20 51.14588 -0.21318 214 ft 11 kts 163°
2026-05-05 20:20 51.14520 -0.21187 210 ft 19 kts 88°
2026-05-05 20:20 51.14535 -0.21067 207 ft 0 kts 77°
2026-05-05 20:21 51.14535 -0.21066 209 ft 1 kts 77°
2026-05-05 20:21 51.14565 -0.20848 212 ft 54 kts 78°
2026-05-05 20:21 51.14695 -0.19907 210 ft 117 kts 77°
2026-05-05 20:21 51.14909 -0.18377 237 ft 162 kts 77°
2026-05-05 20:22 51.15147 -0.16683 957 ft 154 kts 77°
2026-05-05 20:22 51.15382 -0.15024 1661 ft 154 kts 77°
2026-05-05 20:22 51.15626 -0.13257 2000 ft 173 kts 78°
2026-05-05 20:22 51.15886 -0.11298 2393 ft 188 kts 77°
2026-05-05 20:23 51.16173 -0.09161 2745 ft 205 kts 77°
2026-05-05 20:23 51.16494 -0.06820 3070 ft 229 kts 76°
2026-05-05 20:23 51.16850 -0.04225 3509 ft 250 kts 77°
2026-05-05 20:23 51.16918 -0.01389 4218 ft 261 kts 90°
2026-05-05 20:24 51.16841 0.01522 5180 ft 264 kts 89°
2026-05-05 20:24 51.16756 0.04457 6085 ft 267 kts 90°
2026-05-05 20:24 51.16674 0.07433 6897 ft 272 kts 90°
2026-05-05 20:24 51.16601 0.10482 7673 ft 278 kts 89°
2026-05-05 20:25 51.16540 0.13584 8490 ft 282 kts 89°
2026-05-05 20:25 51.16490 0.16724 9339 ft 285 kts 89°
2026-05-05 20:25 51.16467 0.19903 10145 ft 288 kts 88°
2026-05-05 20:25 51.16492 0.23077 10855 ft 292 kts 87°
2026-05-05 20:26 51.16529 0.26326 11617 ft 295 kts 87°
2026-05-05 20:26 51.16556 0.29598 12388 ft 296 kts 88°
2026-05-05 20:26 51.16577 0.32924 13048 ft 302 kts 88°
2026-05-05 20:26 51.16594 0.36286 13785 ft 305 kts 88°
2026-05-05 20:27 51.16601 0.39690 14455 ft 308 kts 88°
2026-05-05 20:27 51.16602 0.43102 15102 ft 310 kts 89°
2026-05-05 20:27 51.16601 0.46563 15753 ft 312 kts 89°
2026-05-05 20:27 51.16598 0.50043 16307 ft 320 kts 89°
2026-05-05 20:28 51.16596 0.53703 16435 ft 339 kts 89°
2026-05-05 20:28 51.16593 0.57556 16568 ft 357 kts 90°
2026-05-05 20:28 51.16590 0.61618 16685 ft 374 kts 89°
2026-05-05 20:28 51.16586 0.65792 16806 ft 389 kts 89°
2026-05-05 20:29 51.16581 0.70141 17147 ft 396 kts 89°
2026-05-05 20:29 51.16574 0.74622 17654 ft 400 kts 89°
2026-05-05 20:29 51.16565 0.79022 18135 ft 403 kts 89°
2026-05-05 20:29 51.16553 0.83504 18589 ft 406 kts 89°
2026-05-05 20:30 51.16534 0.88027 19014 ft 408 kts 89°
2026-05-05 20:30 51.16513 0.92562 19416 ft 412 kts 89°
2026-05-05 20:30 51.16492 0.97146 19840 ft 414 kts 89°
2026-05-05 20:30 51.16474 1.01751 20272 ft 417 kts 90°
2026-05-05 20:31 51.16456 1.06377 20688 ft 419 kts 90°
2026-05-05 20:31 51.16435 1.11047 21115 ft 422 kts 90°
2026-05-05 20:31 51.16407 1.15749 21509 ft 425 kts 90°
2026-05-05 20:31 51.16377 1.20480 21909 ft 428 kts 90°
2026-05-05 20:32 51.16345 1.25234 22306 ft 430 kts 90°
2026-05-05 20:32 51.16311 1.29947 22672 ft 433 kts 90°
2026-05-05 20:32 51.16272 1.34768 23052 ft 435 kts 90°
2026-05-05 20:32 51.16179 1.39607 23420 ft 438 kts 92°
2026-05-05 20:33 51.15991 1.44464 23734 ft 440 kts 94°
2026-05-05 20:33 51.15740 1.49341 24090 ft 442 kts 95°
2026-05-05 20:33 51.15463 1.54227 24411 ft 444 kts 95°
2026-05-05 20:33 51.15181 1.59138 24726 ft 446 kts 95°
2026-05-05 20:34 51.14909 1.64057 25046 ft 447 kts 95°
2026-05-05 20:34 51.14735 1.67345 25241 ft 449 kts 95°
2026-05-05 20:34 51.14480 1.72311 25542 ft 450 kts 95°
2026-05-05 20:34 51.14231 1.77284 25825 ft 452 kts 95°
2026-05-05 20:35 51.13983 1.82282 26092 ft 454 kts 95°
2026-05-05 20:35 51.13733 1.87292 26385 ft 455 kts 95°
2026-05-05 20:35 51.13478 1.92324 26666 ft 456 kts 96°
2026-05-05 20:35 51.13218 1.97374 26942 ft 458 kts 96°
2026-05-05 20:36 51.12954 2.02427 27240 ft 458 kts 95°
2026-05-05 20:36 51.12691 2.07481 27608 ft 457 kts 96°
2026-05-05 20:36 51.12425 2.12521 28010 ft 455 kts 97°
2026-05-05 20:36 51.12152 2.17530 28440 ft 453 kts 96°
2026-05-05 20:37 51.11879 2.22463 28813 ft 452 kts 98°
2026-05-05 20:37 51.11603 2.27446 29240 ft 450 kts 97°
2026-05-05 20:37 51.11331 2.32381 29649 ft 448 kts 97°
2026-05-05 20:37 51.11057 2.37332 30015 ft 447 kts 97°
2026-05-05 20:38 51.10784 2.42256 30370 ft 446 kts 97°
2026-05-05 20:38 51.10509 2.47169 30699 ft 445 kts 97°
2026-05-05 20:38 51.10230 2.52076 31012 ft 444 kts 98°
2026-05-05 20:38 51.09946 2.56959 31345 ft 443 kts 98°
2026-05-05 20:39 51.09663 2.61832 31670 ft 442 kts 98°
2026-05-05 20:39 51.09184 2.66650 31991 ft 438 kts 106°
2026-05-05 20:39 51.08369 2.71296 32320 ft 436 kts 108°
2026-05-05 20:39 51.07540 2.75868 32643 ft 435 kts 108°
2026-05-05 20:40 51.06702 2.80486 32980 ft 434 kts 108°
2026-05-05 20:40 51.05868 2.85087 33312 ft 433 kts 109°
2026-05-05 20:40 51.05034 2.89676 33684 ft 431 kts 109°
2026-05-05 20:40 51.04200 2.94245 34018 ft 429 kts 109°
2026-05-05 20:41 51.03367 2.98802 34261 ft 429 kts 109°
2026-05-05 20:41 51.02533 3.03364 34472 ft 430 kts 109°
2026-05-05 20:41 51.01695 3.07937 34667 ft 431 kts 109°
2026-05-05 20:41 51.00851 3.12517 34859 ft 432 kts 109°
2026-05-05 20:42 51.00002 3.17092 35044 ft 433 kts 109°
2026-05-05 20:42 50.99146 3.21689 35219 ft 434 kts 109°
2026-05-05 20:42 50.98288 3.26295 35405 ft 435 kts 109°
2026-05-05 20:42 50.97428 3.30909 35567 ft 436 kts 109°
2026-05-05 20:43 50.96563 3.35542 35746 ft 437 kts 109°
2026-05-05 20:43 50.95700 3.40168 35912 ft 438 kts 109°
2026-05-05 20:43 50.94831 3.44805 36086 ft 439 kts 109°
2026-05-05 20:43 50.93959 3.49450 36251 ft 439 kts 109°
2026-05-05 20:44 50.93093 3.54042 36417 ft 440 kts 109°
2026-05-05 20:44 50.92212 3.58697 36565 ft 441 kts 109°
2026-05-05 20:44 50.91328 3.63352 36722 ft 442 kts 109°
2026-05-05 20:44 50.90441 3.68007 36863 ft 443 kts 109°
2026-05-05 20:45 50.88637 3.77403 36880 ft 447 kts 109°
2026-05-05 20:45 50.86806 3.86830 36890 ft 448 kts 109°
2026-05-05 20:46 50.84967 3.96254 36891 ft 448 kts 109°
2026-05-05 20:46 50.83131 4.05658 36891 ft 448 kts 109°
2026-05-05 20:47 50.81287 4.15052 36894 ft 456 kts 109°
2026-05-05 20:47 50.79389 4.24688 36891 ft 459 kts 109°
2026-05-05 20:48 50.77478 4.34324 36892 ft 460 kts 109°
2026-05-05 20:48 50.75550 4.43970 36892 ft 460 kts 109°
2026-05-05 20:49 50.73620 4.53595 36893 ft 460 kts 110°
2026-05-05 20:49 50.71681 4.63228 36898 ft 461 kts 109°
2026-05-05 20:50 50.69800 4.72896 36892 ft 461 kts 109°
2026-05-05 20:50 50.67955 4.82499 36898 ft 460 kts 109°
2026-05-05 20:51 50.66078 4.92149 36894 ft 460 kts 109°
2026-05-05 20:51 50.64140 5.01756 36893 ft 460 kts 110°
2026-05-05 20:52 50.62148 5.11330 36896 ft 460 kts 110°
2026-05-05 20:52 50.60152 5.20907 36892 ft 459 kts 110°
2026-05-05 20:53 50.58169 5.30444 36892 ft 459 kts 110°
2026-05-05 20:53 50.56183 5.39988 36880 ft 458 kts 110°
2026-05-05 20:54 50.54192 5.49499 36879 ft 458 kts 110°
2026-05-05 20:54 50.52177 5.59023 36862 ft 458 kts 110°
2026-05-05 20:55 50.50650 5.68680 36876 ft 460 kts 103°
2026-05-05 20:55 50.49396 5.78536 36869 ft 460 kts 103°
2026-05-05 20:56 50.48129 5.88371 36872 ft 460 kts 104°
2026-05-05 20:56 50.46840 5.98208 36853 ft 460 kts 104°
2026-05-05 20:57 50.45543 6.08020 36855 ft 460 kts 104°
2026-05-05 20:57 50.44235 6.17838 36847 ft 460 kts 104°
2026-05-05 20:58 50.42921 6.27661 36844 ft 460 kts 104°
2026-05-05 20:58 50.41604 6.37463 36836 ft 460 kts 104°
2026-05-05 20:59 50.40257 6.47311 36838 ft 460 kts 104°
2026-05-05 20:59 50.38902 6.57058 36824 ft 460 kts 104°
2026-05-05 21:00 50.37539 6.66850 36832 ft 460 kts 104°
2026-05-05 21:00 50.36169 6.76650 36840 ft 460 kts 104°
2026-05-05 21:01 50.34789 6.86419 36848 ft 460 kts 104°
2026-05-05 21:01 50.33396 6.96201 36834 ft 460 kts 105°
2026-05-05 21:02 50.32009 7.05922 36839 ft 461 kts 105°
2026-05-05 21:02 50.30602 7.15707 36841 ft 461 kts 105°
2026-05-05 21:03 50.29179 7.25502 36848 ft 461 kts 105°
2026-05-05 21:03 50.27759 7.35291 36843 ft 461 kts 105°
2026-05-05 21:04 50.26325 7.45085 36827 ft 462 kts 105°
2026-05-05 21:04 50.24877 7.54858 36826 ft 462 kts 105°
2026-05-05 21:05 50.23425 7.64651 36832 ft 462 kts 105°
2026-05-05 21:05 50.21982 7.74384 36836 ft 462 kts 105°
2026-05-05 21:06 50.20517 7.84159 36818 ft 462 kts 106°
2026-05-05 21:06 50.19049 7.93938 36827 ft 462 kts 106°
2026-05-05 21:07 50.17571 8.03697 36836 ft 462 kts 106°
2026-05-05 21:07 50.16068 8.13533 36839 ft 462 kts 106°
2026-05-05 21:08 50.14560 8.23292 36836 ft 462 kts 106°
2026-05-05 21:08 50.13069 8.32974 36826 ft 462 kts 106°
2026-05-05 21:09 50.11559 8.42714 36834 ft 462 kts 106°
2026-05-05 21:09 50.10034 8.52447 36854 ft 462 kts 107°
2026-05-05 21:10 50.08497 8.62189 36853 ft 463 kts 107°
2026-05-05 21:10 50.06955 8.71918 36854 ft 463 kts 108°
2026-05-05 21:11 50.04312 8.80896 36853 ft 455 kts 128°
2026-05-05 21:11 50.00033 8.88018 36848 ft 450 kts 140°
2026-05-05 21:12 49.95391 8.94554 36846 ft 451 kts 140°
2026-05-05 21:12 49.90751 9.01103 36841 ft 451 kts 140°
2026-05-05 21:13 49.86105 9.07648 36842 ft 451 kts 140°
2026-05-05 21:13 49.81446 9.14178 36837 ft 451 kts 140°
2026-05-05 21:14 49.77566 9.19591 36843 ft 452 kts 140°
2026-05-05 21:14 49.72894 9.26097 36846 ft 452 kts 140°
2026-05-05 21:15 49.68219 9.32596 36851 ft 452 kts 140°
2026-05-05 21:15 49.63536 9.39082 36851 ft 452 kts 140°
2026-05-05 21:16 49.59178 9.46119 36852 ft 454 kts 134°
2026-05-05 21:16 49.55044 9.53402 36837 ft 455 kts 134°
2026-05-05 21:17 49.50858 9.60724 36842 ft 455 kts 134°
2026-05-05 21:17 49.46663 9.68044 36851 ft 456 kts 134°
2026-05-05 21:18 49.42463 9.75349 36852 ft 456 kts 134°
2026-05-05 21:18 49.38254 9.82651 36854 ft 456 kts 134°
2026-05-05 21:19 49.34045 9.89937 36839 ft 456 kts 135°
2026-05-05 21:19 49.29822 9.97194 36850 ft 457 kts 135°
2026-05-05 21:20 49.25584 10.04466 36853 ft 457 kts 135°
2026-05-05 21:20 49.21367 10.11697 36873 ft 458 kts 135°
2026-05-05 21:21 49.17122 10.18947 36883 ft 458 kts 135°
2026-05-05 21:21 49.12862 10.26188 36868 ft 458 kts 136°
2026-05-05 21:22 49.08514 10.33262 36898 ft 457 kts 137°
2026-05-05 21:22 49.04108 10.40237 36897 ft 457 kts 138°
2026-05-05 21:23 48.99726 10.47193 36906 ft 457 kts 137°
2026-05-05 21:23 48.95331 10.54201 36908 ft 457 kts 137°
2026-05-05 21:24 48.90936 10.61218 36894 ft 457 kts 137°
2026-05-05 21:24 48.86531 10.68216 36907 ft 457 kts 137°
2026-05-05 21:25 48.82120 10.75184 36903 ft 457 kts 138°
2026-05-05 21:25 48.77706 10.82140 36881 ft 458 kts 138°
2026-05-05 21:26 48.73274 10.89086 36879 ft 458 kts 138°
2026-05-05 21:26 48.68832 10.96023 36853 ft 458 kts 138°
2026-05-05 21:27 48.64387 11.02936 36867 ft 459 kts 138°
2026-05-05 21:27 48.59740 11.09373 36871 ft 450 kts 153°
2026-05-05 21:28 48.54249 11.13827 36875 ft 448 kts 156°
2026-05-05 21:28 48.48718 11.18178 36896 ft 448 kts 156°
2026-05-05 21:29 48.43210 11.22490 36618 ft 440 kts 157°
2026-05-05 21:29 48.40488 11.24618 35877 ft 441 kts 157°
2026-05-05 21:29 48.37759 11.26750 35048 ft 443 kts 158°
2026-05-05 21:30 48.35019 11.28891 34258 ft 446 kts 158°
2026-05-05 21:30 48.32269 11.31042 33463 ft 445 kts 158°
2026-05-05 21:30 48.29507 11.33199 32625 ft 446 kts 158°
2026-05-05 21:30 48.26761 11.35344 31770 ft 446 kts 158°
2026-05-05 21:31 48.24002 11.37491 30852 ft 447 kts 158°
2026-05-05 21:31 48.21236 11.39638 29880 ft 446 kts 158°
2026-05-05 21:31 48.18492 11.41764 28108 ft 446 kts 158°
2026-05-05 21:31 48.15721 11.43904 26994 ft 446 kts 158°
2026-05-05 21:32 48.12957 11.46042 25809 ft 450 kts 157°
2026-05-05 21:32 48.10158 11.48212 24642 ft 455 kts 157°
2026-05-05 21:32 48.07337 11.50400 23490 ft 458 kts 157°
2026-05-05 21:32 48.04513 11.52586 22445 ft 456 kts 156°
2026-05-05 21:33 48.01711 11.54753 21625 ft 450 kts 156°
2026-05-05 21:33 47.98945 11.56882 20824 ft 445 kts 156°
2026-05-05 21:33 47.96203 11.58988 20010 ft 441 kts 156°
2026-05-05 21:33 47.93480 11.61076 19206 ft 438 kts 156°
2026-05-05 21:34 47.90805 11.63125 18430 ft 436 kts 156°
2026-05-05 21:34 47.88116 11.65186 17599 ft 434 kts 155°
2026-05-05 21:34 47.85431 11.67240 16849 ft 429 kts 155°
2026-05-05 21:34 47.82794 11.69257 16134 ft 425 kts 155°
2026-05-05 21:35 47.80172 11.71261 15424 ft 421 kts 155°
2026-05-05 21:35 47.77579 11.73240 14749 ft 417 kts 155°
2026-05-05 21:35 47.75004 11.75201 14096 ft 413 kts 155°
2026-05-05 21:35 47.72464 11.77135 13425 ft 409 kts 155°
2026-05-05 21:36 47.69966 11.78974 12790 ft 402 kts 159°
2026-05-05 21:36 47.67337 11.80492 12165 ft 392 kts 161°
2026-05-05 21:36 47.64920 11.81852 11914 ft 361 kts 161°
2026-05-05 21:36 47.62666 11.83117 11770 ft 333 kts 161°
2026-05-05 21:37 47.60581 11.84284 11606 ft 309 kts 162°
2026-05-05 21:37 47.58604 11.85388 11173 ft 298 kts 162°
2026-05-05 21:37 47.56679 11.86459 10564 ft 294 kts 162°
2026-05-05 21:37 47.54777 11.87516 10204 ft 291 kts 162°
2026-05-05 21:38 47.52894 11.88562 9954 ft 287 kts 162°
2026-05-05 21:38 47.51040 11.89591 9823 ft 283 kts 162°
2026-05-05 21:38 47.49205 11.90608 9695 ft 277 kts 162°
2026-05-05 21:38 47.47441 11.91591 9568 ft 266 kts 162°
2026-05-05 21:39 47.45754 11.92517 9474 ft 254 kts 166°
2026-05-05 21:39 47.44083 11.92970 9482 ft 239 kts 180°
2026-05-05 21:39 47.42442 11.92788 9497 ft 235 kts 194°
2026-05-05 21:39 47.40904 11.92033 9498 ft 232 kts 207°
2026-05-05 21:40 47.39506 11.90850 9494 ft 232 kts 212°
2026-05-05 21:40 47.38114 11.89621 9488 ft 234 kts 211°
2026-05-05 21:40 47.36712 11.88384 9496 ft 235 kts 211°
2026-05-05 21:40 47.35309 11.87148 9506 ft 234 kts 211°
2026-05-05 21:41 47.34024 11.85703 9502 ft 230 kts 227°
2026-05-05 21:41 47.33171 11.83801 9502 ft 217 kts 245°
2026-05-05 21:41 47.32640 11.81759 9478 ft 209 kts 245°
2026-05-05 21:41 47.32192 11.79797 9276 ft 199 kts 252°
2026-05-05 21:42 47.31873 11.77815 8945 ft 198 kts 255°
2026-05-05 21:42 47.31595 11.75830 8616 ft 198 kts 256°
2026-05-05 21:42 47.31322 11.73832 8274 ft 200 kts 256°
2026-05-05 21:42 47.31048 11.71818 7939 ft 200 kts 256°
2026-05-05 21:43 47.30776 11.69811 7604 ft 199 kts 255°
2026-05-05 21:43 47.30510 11.67856 7289 ft 195 kts 256°
2026-05-05 21:43 47.30246 11.65914 6983 ft 191 kts 256°
2026-05-05 21:43 47.29987 11.64016 6668 ft 186 kts 258°
2026-05-05 21:44 47.29736 11.62173 6366 ft 179 kts 257°
2026-05-05 21:44 47.29501 11.60447 6104 ft 165 kts 255°
2026-05-05 21:44 47.29281 11.58844 5823 ft 155 kts 255°
2026-05-05 21:44 47.29071 11.57318 5568 ft 150 kts 255°
2026-05-05 21:45 47.28864 11.55812 5313 ft 150 kts 257°
2026-05-05 21:45 47.28656 11.54299 5045 ft 151 kts 259°
2026-05-05 21:45 47.28447 11.52781 4794 ft 152 kts 260°
2026-05-05 21:45 47.28237 11.51250 4547 ft 153 kts 260°
2026-05-05 21:46 47.28025 11.49714 4293 ft 152 kts 259°
2026-05-05 21:46 47.27815 11.48194 4045 ft 151 kts 259°
2026-05-05 21:46 47.27609 11.46699 3760 ft 148 kts 258°
2026-05-05 21:46 47.27327 11.45262 3708 ft 146 kts 243°
2026-05-05 21:47 47.26806 11.43980 3710 ft 146 kts 236°
2026-05-05 21:47 47.26235 11.42741 3710 ft 146 kts 234°
2026-05-05 21:47 47.25657 11.41510 3707 ft 147 kts 234°
2026-05-05 21:47 47.25071 11.40280 3708 ft 147 kts 234°
2026-05-05 21:48 47.24487 11.39044 3734 ft 147 kts 235°
2026-05-05 21:48 47.23916 11.37793 3736 ft 148 kts 240°
2026-05-05 21:48 47.23625 11.36353 3699 ft 150 kts 265°
2026-05-05 21:48 47.23596 11.34822 3705 ft 149 kts 264°
2026-05-05 21:49 47.23577 11.33298 3681 ft 148 kts 264°
2026-05-05 21:49 47.23590 11.31767 3715 ft 149 kts 267°
2026-05-05 21:49 47.23602 11.30256 3673 ft 150 kts 266°
2026-05-05 21:49 47.23594 11.28726 3646 ft 150 kts 265°
2026-05-05 21:50 47.23696 11.27199 3592 ft 154 kts 297°
2026-05-05 21:50 47.24598 11.26506 3395 ft 155 kts
2026-05-05 21:50 47.25408 11.27443 2913 ft 159 kts 74°
2026-05-05 21:50 47.25488 11.29047 2545 ft 155 kts 89°
2026-05-05 21:51 47.25627 11.30585 2277 ft 147 kts 84°
2026-05-05 21:51 47.25750 11.31883 2103 ft 143 kts 84°
2026-05-05 21:51 47.25910 11.33320 1922 ft 141 kts 85°
2026-05-05 21:51 47.26031 11.34495 1907 ft 78 kts 83°
2026-05-05 21:52 47.26106 11.35190 1903 ft 13 kts 86°
2026-05-05 21:52 47.26058 11.35258 1899 ft 12 kts 173°
2026-05-05 21:52 47.25974 11.35278 1907 ft 13 kts 171°
2026-05-05 21:53 47.25898 11.35249 1898 ft 12 kts 257°
2026-05-05 21:53 47.25886 11.35136 1907 ft 10 kts 260°
2026-05-05 21:53 47.25876 11.35056 1895 ft 6 kts 248°
2026-05-05 21:53 47.25844 11.35045 1905 ft 4 kts 181°
2026-05-05 21:54 47.25823 11.35050 1902 ft 2 kts 170°
2026-05-05 21:54 47.25821 11.35050 1907 ft 0 kts 170°